Location: Bodest
(46.3000°N, 22.5667°E)
Time: 23:19:56
(UTC+00:00)

Ariane Rocket - Pass Details

Date: 16 October 2021
Orbit: 759 x 770 km, 98.7° (Epoch: 05 December)

Event Time Altitude Azimuth Distance (km) Brightness Sun altitude
Exits shadow 18:00:52 23° 26° (NNE) 1,586 4.5 -24.7°
Drops below altitude 10° 18:03:18 10° 4° (N) 2,325 5.6 -25.2°
Sets 18:05:50 0° 354° (N) 3,257 6.5 -25.6°
